Weather observations for the past three days for
Easton Airport
Metric (Imperial)
Date Time (edt) Wind (kph) Vis. (km) Weather Sky Cond. Temperature (ºC) Relative Humidity Wind Chill (°C) Heat Index (°C) Pressure Precipitation (cm)
Air Dwpt 6 hour altimeter (cm) sea level (mb) 1 hr 3 hr 6 hr
Max. Min.
04 19:45 S 22 G 33 16.09 Fair CLR 21 6 38% 75.82 0.0
04 18:50 S 22 16.09 Fair CLR 23 5 31% 75.82 0.0
04 17:45 S 26 16.09 Fair CLR 23 6 33% 75.82 0.0
04 16:45 S 26 16.09 Fair CLR 25 4 26% 25 75.82 0.0
04 15:45 SW 20 G 31 16.09 Fair CLR 24 3 25% 25 75.9 0.0
04 14:45 SW 20 16.09 Fair CLR 23 2 25% 75.95 0.0
04 13:45 SW 24 16.09 Fair CLR 22 1 25% 76 0.0
04 12:45 S 17 16.09 Fair CLR 21 2 29% 76.05 0.0
04 11:45 W 13 16.09 Fair CLR 20 4 35% 76.1 0.0
04 10:45 S 15 16.09 Fair CLR 18 5 43% 76.12 0.0
04 09:45 SW 20 G 30 16.09 Fair CLR 17 4 42% 76.12 0.0
04 08:45 SW 26 16.09 Partly Cloudy SCT100 16 4 45% 76.17 0.0
04 07:45 S 11 16.09 A Few Clouds FEW100 14 6 59% 76.2 0.0
04 06:45 S 7 16.09 Mostly Cloudy BKN110 12 7 72% 76.23 0.0
04 05:55 S 11 14.48 Mostly Cloudy BKN110 12.4 7 70% 76.2 0.0
04 05:50 S 9 16.09 Overcast OVC110 12 6 67% 76.2 0.0
04 05:35 S 11 16.09 Overcast OVC110 12.4 7.1 70% 76.2 0.0
04 05:15 S 13 16.09 Overcast OVC120 12.3 7.3 72% 76.2 0.0
04 04:55 S 13 16.09 Overcast OVC120 12.3 7.6 73% 76.2 0.0
04 04:35 S 13 16.09 Mostly Cloudy BKN120 12.1 7.8 75% 76.2 0.0
04 04:15 S 13 16.09 Mostly Cloudy BKN120 12 7.8 76% 76.2 0.0
04 03:55 S 13 16.09 Partly Cloudy SCT130 11.8 7.2 74% 76.23 0.0
04 03:35 S 15 16.09 Fair CLR 11.6 6.6 72% 76.23 0.0
04 03:15 S 13 16.09 Fair CLR 11.5 5.9 69% 76.23 0.0
04 02:55 S 15 16.09 Partly Cloudy SCT130 11.8 5.9 67% 76.23 0.0
04 02:35 S 13 16.09 Mostly Cloudy BKN130 11.4 6 70% 76.23 0.0
04 02:15 S 11 16.09 A Few Clouds FEW150 9.9 5.4 74% 9 76.25 0.0
04 01:55 S 9 16.09 Partly Cloudy SCT170 9.6 4.5 14 8.6 71% 9 76.23 0.0
04 01:35 S 9 16.09 Mostly Cloudy BKN170 8.9 4.1 72% 8 76.23 0.0
04 01:15 S 11 16.09 Mostly Cloudy BKN180 9.4 3.5 67% 8 76.23 0.0
04 00:55 S 6 16.09 Fair CLR 9.2 2.4 63% 76.23 0.0
04 00:35 S 6 16.09 Fair CLR 9.2 2.1 61% 76.23 0.0
04 00:15 Calm 16.09 Fair CLR 9.2 1.8 60% 76.23 0.0
03 23:55 S 6 16.09 Fair CLR 9.2 2 61% 76.2 0.0
03 23:35 S 6 16.09 Fair CLR 9.5 1.8 59% 76.2 0.0
03 23:15 S 6 16.09 Fair CLR 9.1 1.8 61% 76.2 0.0
03 22:55 S 6 16.09 Fair CLR 9.7 1.4 57% 76.2 0.0
03 22:35 S 7 16.09 Fair CLR 9.6 1.3 57% 9 76.2 0.0
03 22:15 Calm 16.09 Fair CLR 9.7 0.7 54% 76.2 0.0
03 21:45 Calm 16.09 Fair CLR 11 0 47% 76.17 0.0
03 20:45 Calm 16.09 Fair CLR 13 -2 36% 76.12 0.0
03 19:45 W 9 16.09 Fair CLR 14 -3 31% 76.1 0.0
03 18:45 W 11 16.09 Fair CLR 16 -3 27% 76.1 0.0
03 17:45 W 15 16.09 Fair CLR 16 -3 27% 76.1 0.0
03 16:45 NW 22 G 31 16.09 Fair CLR 16 -3 27% 76.1 0.0
03 15:45 W 17 G 46 16.09 Fair CLR 15 -3 29% 76.15 0.0
03 14:45 NW 28 G 35 16.09 Fair CLR 15 -4 27% 76.17 0.0
03 13:45 W 24 G 33 16.09 A Few Clouds FEW070 14 -4 29% 76.2 0.0
03 12:45 W 15 G 31 16.09 A Few Clouds FEW065 13 -4 31% 76.23 0.0
03 11:45 NW 30 G 43 16.09 Fair CLR 13 -4 31% 76.25 0.0
03 10:45 NW 28 G 37 16.09 Fair CLR 11 -3 38% 76.25 0.0
03 09:45 NW 30 G 37 16.09 Fair CLR 10 -2 43% 7 76.25 0.0
03 08:50 NW 39 G 59 16.09 Fair and Breezy CLR 9 -4 40% 5 76.23 0.0
03 06:50 NW 28 G 43 16.09 Fair CLR 7 -2 53% 3 76.12 0.0
03 05:55 NW 24 G 33 14.48 Fair CLR 6.8 -0.2 61% 3 76.05 0.0
03 05:50 NW 26 G 41 16.09 Fair CLR 7 -2 53% 3 76.05 0.0
03 05:35 NW 19 16.09 Fair CLR 7 0 61% 4 76.05 0.0
03 05:15 NW 20 16.09 Fair CLR 7 0.5 64% 4 76.05 0.0
03 04:55 NW 17 16.09 Fair CLR 7.2 0.6 63% 5 76.02 0.0
03 04:35 NW 20 16.09 Fair CLR 7.5 0.7 62% 4 76.02 0.0
03 04:15 NW 17 16.09 Fair CLR 7.6 1 63% 5 76 0.0
03 03:55 NW 19 16.09 Fair CLR 8 0.7 60% 5 76 0.0
03 03:35 NW 17 14.48 Fair CLR 7.8 0.6 61% 5 75.97 0.0
03 03:15 NW 17 16.09 Fair CLR 8 0.6 60% 6 75.97 0.0
03 02:55 NW 17 16.09 Fair CLR 8.7 0.2 56% 6 75.95 0.0
03 02:35 NW 13 16.09 Fair CLR 7.7 0.5 61% 6 75.95 0.0
03 02:15 NW 13 16.09 Fair CLR 8.6 0.1 55% 7 75.95 0.0
03 01:55 NW 11 16.09 Fair CLR 9.5 -0.2 13.6 9.4 51% 8 75.97 0.0
03 01:35 NW 15 16.09 Fair CLR 9.6 0.3 53% 8 75.97 0.0
03 01:15 NW 9 16.09 Fair CLR 9.9 1 54% 9 75.97 0.0
03 00:55 NW 15 16.09 Fair CLR 10.3 0.8 52% 75.97 0.0
03 00:35 NW 11 16.09 Fair CLR 10.7 0.3 49% 75.97 0.0
03 00:15 NW 20 16.09 Fair CLR 11.3 0.2 47% 75.97 0.0
02 23:55 N 19 G 31 16.09 Fair CLR 11.9 -0.2 44% 75.97 0.0
02 23:35 N 15 16.09 Fair CLR 11.9 -0.3 43% 75.95 0.0
02 23:15 N 9 16.09 Fair CLR 11.9 -0.3 43% 75.95 0.0
02 22:55 N 9 16.09 Fair CLR 12.1 -0.2 43% 75.95 0.0
02 22:35 N 11 16.09 Fair CLR 12.3 -0.3 42% 75.95 0.0
02 22:15 N 11 16.09 Fair CLR 12.3 -0.1 43% 75.95 0.0
02 21:45 N 9 16.09 A Few Clouds FEW075 13 0 41% 75.95 0.0
02 20:45 NW 7 16.09 Partly Cloudy SCT070 13 1 44% 75.92 0.0
02 19:45 N 7 14.48 A Few Clouds FEW080 14 -1 36% 75.87 0.0
02 18:45 N 15 14.48 Fair CLR 15 -1 34% 75.87 0.0
02 17:45 N 17 16.09 Partly Cloudy SCT170 15 -1 34% 75.84 0.0
02 16:45 NW 13 16.09 Mostly Cloudy BKN170 15 -1 34% 75.84 0.0
02 15:45 NW 19 G 30 16.09 Mostly Cloudy BKN180 15 0 36% 75.87 0.0
02 14:45 NW 19 16.09 A Few Clouds FEW190 16 -1 31% 75.92 0.0
02 12:45 NW 19 16.09 Mostly Cloudy BKN170 13 0 41% 76.02 0.0
02 11:45 N 17 16.09 A Few Clouds FEW170 13 1 44% 76.07 0.0
02 10:45 N 19 16.09 Mostly Cloudy BKN190 12 3 54% 76.02 0.0
02 09:45 N 15 16.09 A Few Clouds FEW380 12 4 58% 76.02 0.0
02 08:45 N 13 16.09 Fair CLR 11 4 62% 76.05 0.0
02 07:45 N 20 16.09 Fair CLR 11 3 58% 76.05 0.0
02 06:45 NW 15 16.09 Fair CLR 10 6 76% 8 76 0.0
02 05:55 Calm 16.09 Fair CLR 9 8 94% 75.97 0.0
02 05:35 Calm 16.09 Fair CLR 8.9 7.5 91% 75.95 0.0
02 05:15 Calm 16.09 Fair CLR 9.3 7.8 90% 75.95 0.0
02 04:55 Calm 16.09 Fair CLR 9.3 7.8 90% 75.95 0.0
02 04:35 Calm 16.09 A Few Clouds FEW120 9.2 7.7 90% 75.92 0.0
02 04:15 NE 6 16.09 Partly Cloudy SCT120 9.7 7.7 87% 75.92 0.0
02 03:55 N 6 16.09 Mostly Cloudy BKN110 10.1 7.9 86% 75.92 0.0
02 03:15 Calm 16.09 Mostly Cloudy SCT055 BKN110 10.4 7.6 83% 75.9 0.0
02 02:55 Calm 16.09 Mostly Cloudy SCT055 BKN110 10.7 7.8 82% 75.92 0.0
02 02:35 Calm 16.09 Partly Cloudy SCT110 10.5 7.6 82% 75.92 0.0
02 02:15 S 7 16.09 A Few Clouds FEW060 10.6 7.4 81% 75.95 0.0
02 01:55 S 7 16.09 A Few Clouds FEW060 11.3 7.4 14.9 11.2 77% 75.95 0.0
02 01:35 S 9 16.09 Fair CLR 11.3 7.2 76% 75.97 0.0
02 01:15 S 11 16.09 A Few Clouds FEW100 11.5 7 74% 75.95 0.0
02 00:55 S 15 16.09 Fair CLR 11.7 6.8 72% 75.95 0.0
02 00:35 S 13 16.09 A Few Clouds FEW100 11.8 6.9 72% 75.95 0.0
02 00:15 S 15 16.09 Partly Cloudy SCT100 SCT130 12 6.9 71% 75.95 0.0
01 23:55 S 13 16.09 Mostly Cloudy BKN120 12.1 6.9 71% 75.95 0.0
01 23:35 S 11 16.09 Mostly Cloudy BKN120 12.1 7 71% 75.95 0.0
01 23:15 S 11 16.09 Mostly Cloudy BKN130 12.1 7.5 74% 75.92 0.0
01 22:55 S 11 16.09 A Few Clouds FEW130 11.9 7.2 73% 75.92 0.0
01 22:35 S 15 16.09 Partly Cloudy SCT130 12.5 7 69% 75.95 0.0
01 22:15 S 15 16.09 Partly Cloudy SCT130 12.7 6.4 66% 75.95 0.0
01 21:45 SE 15 16.09 A Few Clouds FEW120 13 5 59% 75.92 0.0
01 20:45 SE 13 16.09 Fair CLR 13 4 55% 75.92 0.0
Date Time (edt) Wind (kph) Vis. (km) Weather Sky Cond. Air Dwpt Max. Min. Relative Humidity Wind Chill (°C) Heat Index (°C) altimeter (cm) sea level (mb) 1 hr 3 hr 6 hr
6 hour
Temperature (ºC) Pressure Precipitation (cm)